GW4634 Weather Reports


Display with metric or nautical units.
time (UTC)temp
F
wind
direction
speed
MPH
gust
MPH
rain 1hr
in
rain 24hr
in
rain mn
in
humidity
%
barometer
mb
20260508104510 49 254 2.0 8.0 0.00 0.00 0.00 76 1012.2
20260508103034 48 265 4.0 8.0 0.00 0.00 0.00 76 1012.2
20260508101513 47 240 3.0 6.0 0.00 0.00 0.00 81 1012.3
20260508100018 45 240 0.0 6.0 0.00 0.00 0.00 84 1012.5
20260508094517 45 220 0.0 1.0 0.00 0.00 0.00 83 1012.4
20260508093025 45 218 0.0 1.0 0.00 0.00 0.00 83 1012.4
20260508091515 45 223 0.0 2.0 0.00 0.00 0.00 83 1012.4
20260508090016 45 213 0.0 2.0 0.00 0.00 0.00 82 1012.6
20260508084516 45 218 1.0 4.0 0.00 0.00 0.00 81 1012.6
20260508083019 46 256 0.0 3.0 0.00 0.00 0.00 81 1012.7
20260508081520 46 203 1.0 5.0 0.00 0.00 0.00 81 1012.7
20260508080017 46 242 1.0 4.0 0.00 0.00 0.00 80 1012.8
20260508074528 46 205 0.0 5.0 0.00 0.00 0.00 79 1012.7
20260508073019 47 227 1.0 7.0 0.00 0.00 0.00 78 1012.8
20260508071524 47 249 4.0 9.0 0.00 0.00 0.00 77 1012.9
20260508070032 48 257 4.0 9.0 0.00 0.00 0.00 75 1013.0
20260508064523 48 235 6.0 14.0 0.00 0.00 0.00 73 1012.9
20260508063025 48 262 3.0 7.0 0.00 0.00 0.00 72 1012.9
20260508061518 48 245 2.0 4.0 0.00 0.00 0.00 72 1012.9
20260508060024 48 217 1.0 4.0 0.00 0.00 0.00 72 1013.1
20260508054527 47 213 0.0 4.0 0.00 0.00 0.00 73 1013.0
20260508053014 47 224 0.0 2.0 0.00 0.00 0.00 73 1013.2
20260508051514 47 217 0.0 1.0 0.00 0.00 0.00 72 1013.3
20260508050023 48 212 0.0 1.0 0.00 0.00 0.00 71 1013.4
20260508044520 48 224 0.0 3.0 0.00 0.00 0.00 69 1013.5
20260508043020 49 244 0.0 2.0 0.00 0.00 0.00 68 1013.4
20260508041512 49 256 0.0 4.0 0.00 0.00 0.00 67 1013.4
20260508040024 49 221 3.0 6.0 0.00 0.00 0.00 66 1013.4
20260508034523 50 244 3.0 8.0 0.00 0.00 0.00 65 1013.4
20260508033024 49 259 2.0 7.0 0.00 0.00 0.00 66 1013.6
20260508031525 49 219 4.0 11.0 0.00 0.00 0.00 64 1013.7
20260508030042 48 262 3.0 7.0 0.00 0.00 0.00 66 1013.7
20260508024516 47 238 0.0 5.0 0.00 0.00 0.00 71 1013.8
20260508023021 43 238 0.0 1.0 0.00 0.00 0.00 81 1013.8
20260508021524 43 273 0.0 0.0 0.00 0.00 0.00 81 1013.6
20260508020027 43 273 0.0 0.0 0.00 0.00 0.00 80 1013.7
20260508014528 43 272 0.0 0.0 0.00 0.00 0.00 78 1013.5
20260508013015 43 273 0.0 0.0 0.00 0.00 0.00 74 1013.4
20260508011515 44 273 0.0 0.0 0.00 0.00 0.00 69 1013.2
20260508010027 46 273 0.0 0.0 0.00 0.00 0.00 64 1013.2
20260508004527 48 273 0.0 0.0 0.00 0.00 0.00 60 1013.1
20260508003026 50 273 0.0 0.0 0.00 0.00 0.00 55 1013.1
20260508001528 52 272 0.0 2.0 0.00 0.00 0.00 49 1013.0
20260508000022 54 280 0.0 3.0 0.00 0.00 0.00 48 1012.9
20260507234535 55 279 0.0 8.0 0.00 0.00 0.00 45 1012.9
20260507233027 56 269 1.0 5.0 0.00 0.00 0.00 45 1012.9
20260507231529 56 75 0.0 8.0 0.00 0.00 0.00 45 1012.8
20260507230005 56 286 5.0 11.0 0.00 0.00 0.00 47 1013.0
20260507224504 56 292 3.0 9.0 0.00 0.00 0.00 45 1013.1
20260507223005 56 295 5.0 11.0 0.00 0.00 0.00 42 1013.2
20260507221507 56 249 3.0 13.0 0.00 0.00 0.00 44 1013.1
20260507220017 56 272 5.0 15.0 0.00 0.00 0.00 42 1013.2
20260507214504 56 37 2.0 13.0 0.00 0.00 0.00 43 1012.9
20260507213010 57 269 4.0 12.0 0.00 0.00 0.00 44 1012.8
20260507211509 57 284 6.0 15.0 0.00 0.00 0.00 45 1012.9
20260507210011 57 330 2.0 9.0 0.00 0.00 0.00 50 1012.8
20260507204509 55 320 3.0 13.0 0.00 0.00 0.00 51 1012.6
20260507203004 54 293 2.0 11.0 0.00 0.00 0.00 56 1012.5
20260507201503 53 262 4.0 12.0 0.00 0.00 0.00 56 1012.7
20260507200011 54 224 2.0 8.0 0.00 0.00 0.00 57 1012.6
20260507194511 55 241 1.0 15.0 0.00 0.00 0.00 54 1012.6
20260507193008 56 248 7.0 15.0 0.00 0.00 0.00 50 1012.7
20260507191508 56 263 8.0 15.0 0.00 0.00 0.00 54 1012.7
20260507190008 55 238 8.0 13.0 0.00 0.00 0.00 48 1012.6
20260507184512 54 288 8.0 16.0 0.00 0.00 0.00 54 1012.8
20260507183020 54 269 4.0 10.0 0.00 0.00 0.00 54 1012.9
20260507181515 55 286 5.0 13.0 0.00 0.00 0.00 55 1012.9
20260507180016 55 276 9.0 14.0 0.00 0.00 0.00 53 1013.0
20260507174512 54 301 5.0 10.0 0.00 0.00 0.00 56 1013.0
20260507173011 55 223 6.0 9.0 0.00 0.00 0.00 61 1013.1
20260507171526 55 293 5.0 12.0 0.00 0.00 0.00 54 1013.1
20260507170024 56 260 7.0 12.0 0.00 0.00 0.00 53 1013.2
20260507164527 55 274 5.0 11.0 0.00 0.00 0.00 60 1013.2
20260507163008 54 287 2.0 8.0 0.00 0.00 0.00 55 1013.1
20260507161513 55 297 3.0 8.0 0.00 0.00 0.00 58 1013.2
20260507160023 55 290 2.0 12.0 0.00 0.00 0.00 55 1013.4
20260507154522 54 248 3.0 10.0 0.00 0.00 0.00 57 1013.4
20260507153025 53 294 4.0 8.0 0.00 0.00 0.00 58 1013.4
20260507151513 53 264 5.0 8.0 0.00 0.00 0.00 62 1013.4
20260507150016 53 264 3.0 9.0 0.00 0.00 0.00 64 1013.5
20260507144518 52 276 2.0 7.0 0.00 0.00 0.00 64 1013.4
20260507143026 53 314 4.0 9.0 0.00 0.00 0.00 69 1013.4
20260507141531 52 224 3.0 8.0 0.00 0.00 0.00 71 1013.4
20260507140028 51 188 3.0 6.0 0.00 0.00 0.00 72 1013.6
20260507134519 50 191 2.0 5.0 0.00 0.00 0.00 74 1013.7
20260507133023 50 175 1.0 5.0 0.00 0.00 0.00 74 1013.8
20260507131519 50 176 1.0 4.0 0.00 0.00 0.00 75 1013.8
20260507130038 48 193 0.0 5.0 0.00 0.00 0.00 77 1013.9
20260507124530 47 232 1.0 4.0 0.00 0.00 0.00 78 1013.8
20260507123021 46 207 0.0 5.0 0.00 0.00 0.00 81 1013.8
20260507121525 45 215 1.0 3.0 0.00 0.00 0.00 82 1013.8
20260507120024 44 248 2.0 4.0 0.00 0.00 0.00 83 1013.7
20260507114528 43 255 2.0 5.0 0.00 0.00 0.00 84 1013.7
20260507113019 42 330 2.0 5.0 0.00 0.00 0.00 84 1013.8
20260507111520 41 229 0.0 2.0 0.00 0.00 0.00 86 1013.4
20260507110015 40 222 0.0 2.0 0.00 0.00 0.00 87 1013.2